Back to catalog

STARLINK-36820

AliveCommunicationsSSO
NORAD 67966·PAYLOAD·🇺🇸 United States

Launched Feb 25, 2026 from Vandenberg Space Force Base

Loading…

Next Passes (next 24 hours)

TLE

FreshSource: CelesTrak SupGP

Epoch: Sep 14, 2026, 23:16 UTC

1 67966C 26038F   26257.96993056  .00051604  00000+0  16009-2 0  2572
2 67966  97.2846 266.3554 0001309  79.4965 280.1499 15.33433112    16

Track STARLINK-36820 in real time with AllMySat

Download on the App Store